COSMOS 1275 DEB, 42215

Orbit data source: Space-Track

COSMOS 1275 DEB, 42215 is space debris in LEO originally from a launch on Thu, 04 Jun 1981 UTC launched from the Plesetsk Missile And Space Complex (PKMTR). Debris objects in space refer to the collection of defunct objects orbiting the Earth. Examples of debris include non-operational satellites, rocket bodies, and fragments generated from explosions, collisions, or faulty payload assembly.

Loading next visibility...
Identifier
42215, 1981-053UF
Orbit
LEO
Country
Flag of CISCIS
Related business
Manufacturer
Unknown
Mission
Spacecraft
Bus & Motor
Unknown
Mass
Unknown
Launch date (UTC)
1981-06-04 (45 years ago)
Launch vehicle
Unknown
Launch site
Plesetsk Missile And Space Complex (PKMTR)
Object type
Payload
Rocket body
Debris
Shape & HBR
Unknown shape, 0.1 m
Radar Cross Section
Small (<0.1 m²)

Expand to show TLE details & history
Last TLE update: 3 days ago

TLE from 3 days ago
0 COSMOS 1275 DEB
1 42215U 81053UF  26034.41290878  .00001328  00000-0  12300-2 0  9997
2 42215  82.8899  74.4702 0106861  74.1361 287.1545 13.79102000612226
Epoch: 2026-02-03T09:54Z
TLE epoch observation values (Epoch: 2026-02-03T09:54:35.318Z)
Latitude
-0.00004°
Longitude
152.22883°
Altitude
947.592 km
Speed
7.389 km/s
True Right ascension
04h 57m 52s
True Declination
0° 00' 00"
Sunlit
Object was in daylight at epoch
Visualization orbit readout
Latitude
Unknown
Longitude
Unknown
Altitude
Unknown
Speed
Unknown
Apparent Right ascension
Unknown
Apparent Declination
Unknown
Sunlit
N/A
Visualization observer readout
Local Sidereal Time
18:03:59
Azimuth
Unknown
Elevation
Unknown
Doppler factor
Unknown
Orbital elements
Apogee altitude
1,042.679 km
Perigee altitude
885.757 km
Semi-major axis
7,342.355 km
Eccentricity
0.01069
Inclination
82.8899°
RAAN
74.4702°
Arg. of periapsis
74.1361°
True anomaly
285.97989°
Mean anomaly
287.1545°
Eccentric anomaly
286.56765°
Mean motion
3.44977 °/min
Orbital period
104.35 mins
BSTAR
0.00123
Loading maneuver chart data...
Computing Atmospheric mass density...
Loading historical data...
Loading historical data...
Loading historical data...
Loading historical data...
Loading historical data...
Loading historical data...
Loading historical data...

Documentation

Showing up to 5 results
|